When you browse on this site, cookies collect data to enhance your experience and personalize the content and advertising you see.
Visit our Privacy Policy to learn more. By continuing to use the site, you agree to this use of cookies and data.
  • In Czech Republic
  • List of Countries
  • For 7 days
  • Water Temperature
  • Weather Map
  • Weather Widgets
  • user-avatar
    Login

    Hourly Weather Córdoba

    Today, 15 September, Sunday

    Time Temperature Precipitation Wind Pressure Humidity
    00:00 +17°C° 0 mm 4 mps 718 mmHg 64%
    01:00 +17°C° 0 mm 4 mps 718 mmHg 65%
    02:00 +16°C° 0 mm 3 mps 717 mmHg 66%
    03:00 +16°C° 0 mm 3 mps 717 mmHg 67%
    04:00 +16°C° 0 mm 3 mps 717 mmHg 68%
    05:00 +16°C° 0 mm 3 mps 717 mmHg 69%
    06:00 +18°C° 0 mm 3 mps 717 mmHg 64%
    07:00 +19°C° 0 mm 3 mps 718 mmHg 59%
    08:00 +21°C° 0 mm 3 mps 718 mmHg 54%
    09:00 +25°C° 0 mm 3 mps 718 mmHg 45%
    10:00 +28°C° 0 mm 3 mps 718 mmHg 37%
    11:00 +31°C° 0 mm 3 mps 718 mmHg 29%
    12:00 +34°C° 0 mm 4 mps 718 mmHg 24%
    13:00 +35°C° 0 mm 4 mps 717 mmHg 19%
    14:00 +37°C° 0 mm 5 mps 717 mmHg 14%
    15:00 +35°C° 0 mm 5 mps 717 mmHg 20%
    16:00 +33°C° 0 mm 5 mps 717 mmHg 26%
    17:00 +30°C° 0 mm 6 mps 717 mmHg 31%
    18:00 +28°C° 0 mm 6 mps 718 mmHg 36%
    19:00 +26°C° 0 mm 6 mps 719 mmHg 40%
    20:00 +23°C° 0 mm 6 mps 720 mmHg 45%
    21:00 +21°C° 0 mm 7 mps 720 mmHg 51%
    22:00 +20°C° 0 mm 7 mps 721 mmHg 58%
    23:00 +17°C° 0 mm 8 mps 722 mmHg 64%

    Tomorrow, 16 September, Monday

    Time Temperature Precipitation Wind Pressure Humidity
    00:00 +16°C° 0 mm 9 mps 722 mmHg 64%
    01:00 +16°C° 0 mm 9 mps 723 mmHg 63%
    02:00 +14°C° 0 mm 10 mps 723 mmHg 62%
    03:00 +13°C° 0 mm 9 mps 724 mmHg 51%
    04:00 +12°C° 0 mm 8 mps 725 mmHg 39%
    05:00 +12°C° 0 mm 8 mps 726 mmHg 27%
    06:00 +12°C° 0 mm 7 mps 727 mmHg 25%
    07:00 +12°C° 0 mm 7 mps 728 mmHg 22%
    08:00 +12°C° 0 mm 7 mps 729 mmHg 20%
    09:00 +14°C° 0 mm 6 mps 729 mmHg 19%
    10:00 +15°C° 0 mm 6 mps 730 mmHg 18%
    11:00 +16°C° 0 mm 6 mps 730 mmHg 16%
    12:00 +17°C° 0 mm 5 mps 730 mmHg 16%
    13:00 +19°C° 0 mm 5 mps 730 mmHg 16%
    14:00 +20°C° 0 mm 4 mps 729 mmHg 15%
    15:00 +20°C° 0 mm 3 mps 729 mmHg 16%
    16:00 +20°C° 0 mm 3 mps 729 mmHg 17%
    17:00 +20°C° 0 mm 2 mps 728 mmHg 18%
    18:00 +18°C° 0 mm 2 mps 729 mmHg 21%
    19:00 +16°C° 0 mm 2 mps 729 mmHg 24%
    20:00 +14°C° 0 mm 1 mps 729 mmHg 26%
    21:00 +14°C° 0 mm 1 mps 729 mmHg 28%
    22:00 +13°C° 0 mm 1 mps 729 mmHg 29%
    23:00 +13°C° 0 mm 1 mps 728 mmHg 30%

    Day after tomorrow, 17 September, Tuesday

    Time Temperature Precipitation Wind Pressure Humidity
    00:00 +12°C° 0 mm 1 mps 728 mmHg 30%
    01:00 +12°C° 0 mm 2 mps 727 mmHg 31%
    02:00 +12°C° 0 mm 2 mps 727 mmHg 32%
    03:00 +12°C° 0 mm 2 mps 727 mmHg 33%
    04:00 +11°C° 0 mm 1 mps 726 mmHg 34%
    05:00 +11°C° 0 mm 1 mps 726 mmHg 35%
    06:00 +12°C° 0 mm 1 mps 726 mmHg 34%
    07:00 +13°C° 0 mm 1 mps 725 mmHg 32%
    08:00 +14°C° 0 mm 1 mps 725 mmHg 31%
    09:00 +18°C° 0 mm 1 mps 725 mmHg 28%
    10:00 +19°C° 0 mm 2 mps 725 mmHg 25%
    11:00 +21°C° 0 mm 2 mps 724 mmHg 22%
    12:00 +23°C° 0 mm 2 mps 724 mmHg 21%
    13:00 +25°C° 0 mm 2 mps 723 mmHg 20%
    14:00 +26°C° 0 mm 3 mps 722 mmHg 19%
    15:00 +25°C° 0 mm 3 mps 722 mmHg 20%
    16:00 +25°C° 0 mm 3 mps 721 mmHg 21%
    17:00 +25°C° 0 mm 4 mps 721 mmHg 22%
    18:00 +21°C° 0 mm 3 mps 721 mmHg 27%
    19:00 +19°C° 0 mm 3 mps 721 mmHg 31%
    20:00 +17°C° 0 mm 2 mps 721 mmHg 36%
    21:00 +16°C° 0 mm 2 mps 721 mmHg 38%
    22:00 +16°C° 0 mm 2 mps 722 mmHg 40%
    23:00 +15°C° 0 mm 1 mps 722 mmHg 42%

    18 September, Wednesday

    Time Temperature Precipitation Wind Pressure Humidity
    00:00 +15°C° 0 mm 1 mps 722 mmHg 41%
    01:00 +15°C° 0 mm 2 mps 722 mmHg 41%
    02:00 +14°C° 0 mm 2 mps 722 mmHg 40%
    03:00 +14°C° 0 mm 2 mps 722 mmHg 39%
    04:00 +14°C° 0 mm 1 mps 722 mmHg 39%
    05:00 +14°C° 0 mm 1 mps 722 mmHg 38%
    06:00 +16°C° 0 mm 1 mps 722 mmHg 35%
    07:00 +18°C° 0 mm 1 mps 722 mmHg 32%
    08:00 +20°C° 0 mm 1 mps 722 mmHg 28%
    09:00 +21°C° 0 mm 2 mps 722 mmHg 25%
    10:00 +25°C° 0 mm 3 mps 722 mmHg 21%
    11:00 +27°C° 0 mm 4 mps 722 mmHg 17%
    12:00 +28°C° 0 mm 4 mps 721 mmHg 16%
    13:00 +29°C° 0 mm 5 mps 720 mmHg 15%
    14:00 +29°C° 0 mm 6 mps 719 mmHg 15%
    15:00 +29°C° 0 mm 6 mps 718 mmHg 17%
    16:00 +28°C° 0 mm 6 mps 718 mmHg 19%
    17:00 +28°C° 0 mm 7 mps 717 mmHg 21%
    18:00 +26°C° 0 mm 6 mps 717 mmHg 25%
    19:00 +22°C° 0 mm 5 mps 717 mmHg 29%
    20:00 +20°C° 0 mm 5 mps 717 mmHg 33%
    21:00 +19°C° 0 mm 5 mps 716 mmHg 35%
    22:00 +18°C° 0 mm 4 mps 716 mmHg 38%
    23:00 +17°C° 0 mm 4 mps 716 mmHg 41%

    19 September, Thursday

    Time Temperature Precipitation Wind Pressure Humidity
    00:00 +17°C° 0 mm 4 mps 715 mmHg 42%
    01:00 +15°C° 0 mm 4 mps 715 mmHg 43%
    02:00 +16°C° 0 mm 3 mps 715 mmHg 44%
    03:00 +14°C° 0 mm 3 mps 715 mmHg 46%
    04:00 +15°C° 0 mm 2 mps 714 mmHg 47%
    05:00 +14°C° 0 mm 1 mps 714 mmHg 49%
    06:00 +13°C° 0 mm 5 mps 716 mmHg 45%
    07:00 +13°C° 0 mm 8 mps 717 mmHg 40%
    08:00 +13°C° 0 mm 11 mps 718 mmHg 36%
    09:00 +13°C° 0 mm 11 mps 719 mmHg 30%
    10:00 +14°C° 0 mm 10 mps 720 mmHg 25%
    11:00 +14°C° 0 mm 10 mps 721 mmHg 19%
    12:00 +16°C° 0 mm 9 mps 721 mmHg 18%
    13:00 +17°C° 0 mm 8 mps 721 mmHg 17%
    14:00 +17°C° 0 mm 8 mps 721 mmHg 16%
    15:00 +17°C° 0 mm 7 mps 722 mmHg 16%
    16:00 +17°C° 0 mm 6 mps 722 mmHg 16%
    17:00 +17°C° 0 mm 6 mps 722 mmHg 16%
    18:00 +15°C° 0 mm 5 mps 723 mmHg 16%
    19:00 +13°C° 0 mm 4 mps 724 mmHg 17%
    20:00 +11°C° 0 mm 3 mps 725 mmHg 18%
    21:00 +11°C° 0 mm 3 mps 725 mmHg 19%
    22:00 +10°C° 0 mm 2 mps 726 mmHg 20%
    23:00 +9°C° 0 mm 2 mps 726 mmHg 21%

    20 September, Friday

    Time Temperature Precipitation Wind Pressure Humidity
    00:00 +9°C° 0 mm 2 mps 726 mmHg 22%
    01:00 +9°C° 0 mm 1 mps 727 mmHg 22%
    02:00 +9°C° 0 mm 1 mps 727 mmHg 23%
    03:00 +8°C° 0 mm 1 mps 727 mmHg 23%
    04:00 +8°C° 0 mm 1 mps 727 mmHg 24%
    05:00 +7°C° 0 mm 0 mps 727 mmHg 24%
    06:00 +8°C° 0 mm 0 mps 727 mmHg 23%
    07:00 +10°C° 0 mm 1 mps 727 mmHg 22%
    08:00 +12°C° 0 mm 1 mps 728 mmHg 20%
    09:00 +14°C° 0 mm 1 mps 728 mmHg 19%
    10:00 +15°C° 0 mm 2 mps 728 mmHg 17%
    11:00 +17°C° 0 mm 3 mps 728 mmHg 15%
    12:00 +18°C° 0 mm 3 mps 727 mmHg 14%
    13:00 +19°C° 0 mm 4 mps 726 mmHg 13%
    14:00 +21°C° 0 mm 4 mps 726 mmHg 12%
    15:00 +20°C° 0 mm 4 mps 725 mmHg 13%
    16:00 +20°C° 0 mm 4 mps 725 mmHg 14%
    17:00 +19°C° 0 mm 4 mps 724 mmHg 15%
    18:00 +17°C° 0 mm 4 mps 725 mmHg 18%
    19:00 +14°C° 0 mm 3 mps 725 mmHg 22%
    20:00 +12°C° 0 mm 3 mps 725 mmHg 25%
    21:00 +12°C° 0 mm 2 mps 725 mmHg 27%
    22:00 +12°C° 0 mm 2 mps 725 mmHg 30%
    23:00 +10°C° 0 mm 2 mps 725 mmHg 32%
    Show more